CW6726 Weather Reports


time (UTC)temp
C
wind
direction
speed
KPH
gust
KPH
rain 1hr
cm
rain 24hr
cm
rain mn
cm
humidity
%
barometer
mb
20260502130605 21 234 0.0 3.2 0.00 0.00 0.00 58 1011.8
20260502130105 21 235 1.6 4.8 0.00 0.00 0.00 57 1011.8
20260502123105 21 120 0.0 8.0 0.00 0.00 0.00 54 1012.2
20260502122105 21 234 4.8 11.3 0.00 0.00 0.00 57 1012.4
20260502120605 20 121 0.0 11.3 0.00 0.00 0.00 55 1012.6
20260502120104 20 118 0.0 4.8 0.00 0.00 0.00 55 1012.6
20260502115604 20 114 0.0 3.2 0.00 0.00 0.00 58 1012.6
20260502115105 20 164 1.6 4.8 0.00 0.00 0.00 58 1012.7
20260502113605 18 55 4.8 12.9 0.00 0.00 0.00 59 1012.9
20260502113104 18 88 1.6 11.3 0.00 0.00 0.00 64 1013.0
20260502111605 18 106 1.6 4.8 0.00 0.00 0.00 66 1013.5
20260502111106 18 107 0.0 4.8 0.00 0.00 0.00 67 1013.6
20260502110606 17 105 0.0 1.6 0.00 0.00 0.00 68 1013.7
20260502105605 17 105 3.2 8.0 0.00 0.00 0.00 70 1013.8
20260502104604 16 119 1.6 8.0 0.00 0.00 0.00 74 1014.1
20260502104105 16 127 0.0 8.0 0.00 0.00 0.00 75 1014.0
20260502103605 16 131 0.0 3.2 0.00 0.00 0.00 77 1014.1
20260502102605 15 134 0.0 4.8 0.00 0.00 0.00 80 1014.2
20260502101605 14 138 0.0 3.2 0.00 0.00 0.00 82 1014.5
20260502101105 14 138 1.6 4.8 0.00 0.00 0.00 83 1014.5
20260502100105 13 139 1.6 4.8 0.00 0.00 0.00 84 1014.6
20260502090605 12 129 0.0 4.8 0.00 0.00 0.00 89 1014.9
20260502090105 12 126 0.0 1.6 0.00 0.00 0.00 89 1015.0
20260502080105 11 213 0.0 1.6 0.00 0.00 0.00 92 1015.3
20260502070605 10 213 0.0 0.0 0.00 0.00 0.00 93 1015.5
20260502070105 10 213 0.0 1.6 0.00 0.00 0.00 93 1015.5
20260502064605 10 213 0.0 0.0 0.00 0.00 0.00 93 1015.5
20260502064105 10 213 0.0 0.0 0.00 0.00 0.00 93 1015.5
20260502063605 10 213 0.0 0.0 0.00 0.00 0.00 93 1015.5
20260502060105 10 213 0.0 0.0 0.00 0.00 0.00 92 1015.6
20260502052105 9 213 1.6 4.8 0.00 0.00 0.00 92 1015.6
20260502050606 10 213 0.0 0.0 0.00 0.00 0.00 92 1015.6
20260502045604 10 213 0.0 0.0 0.00 0.00 0.00 92 1015.6
20260502045105 9 213 0.0 0.0 0.00 0.00 0.00 92 1015.6
20260502043104 10 213 0.0 0.0 0.00 0.00 0.00 92 1015.7
20260502042604 10 213 0.0 0.0 0.00 0.00 0.00 92 1015.7
20260502042105 10 213 0.0 1.6 0.00 0.00 0.00 92 1015.6
20260502041105 10 213 0.0 0.0 0.00 0.00 0.00 92 1015.6
20260502040605 10 213 0.0 0.0 0.00 0.00 0.00 92 1015.6
20260502040105 10 213 0.0 0.0 0.00 0.00 0.00 92 1015.6
20260502034605 10 213 0.0 0.0 0.00 0.00 0.00 92 1015.7
20260502034105 10 213 0.0 4.8 0.00 0.00 0.00 92 1015.8
20260502033105 10 213 0.0 0.0 0.00 0.00 0.00 92 1015.9
20260502031604 10 213 0.0 4.8 0.00 0.00 0.00 92 1016.0
20260502030605 10 213 0.0 4.8 0.00 0.00 0.00 92 1016.1
20260502025605 10 213 0.0 4.8 0.00 0.00 0.00 91 1016.2
20260502025105 10 213 3.2 9.7 0.00 0.00 0.00 91 1016.1
20260502024105 10 213 3.2 9.7 0.00 0.00 0.00 91 1016.2
20260502023104 10 213 0.0 4.8 0.00 0.00 0.00 91 1016.2
20260502022605 10 213 1.6 11.3 0.00 0.00 0.00 91 1016.2
20260502022105 10 213 1.6 3.2 0.00 0.00 0.00 91 1016.2
20260502020105 10 213 0.0 3.2 0.00 0.00 0.00 91 1016.2
20260502014105 10 213 1.6 8.0 0.00 0.00 0.00 90 1016.3
20260502013605 10 213 3.2 8.0 0.00 0.00 0.00 91 1016.3
20260502013105 10 213 0.0 8.0 0.00 0.00 0.00 90 1016.3
20260502012605 10 213 0.0 4.8 0.00 0.00 0.00 90 1016.4
20260502011605 10 213 3.2 8.0 0.00 0.00 0.00 90 1016.5
20260502010605 10 213 0.0 8.0 0.00 0.00 0.00 90 1016.6
20260502010105 10 213 1.6 9.7 0.00 0.00 0.00 90 1016.6
20260502005605 10 213 1.6 11.3 0.00 0.00 0.00 90 1016.6
20260502005104 10 213 0.0 3.2 0.00 0.00 0.00 89 1016.6
20260502004605 10 213 1.6 4.8 0.00 0.00 0.00 89 1016.6
20260502004105 10 213 0.0 3.2 0.00 0.00 0.00 89 1016.7
20260502003604 10 213 0.0 0.0 0.00 0.00 0.00 89 1016.7
20260502003105 10 213 0.0 1.6 0.00 0.00 0.00 89 1016.7
20260502002104 10 213 0.0 3.2 0.00 0.00 0.00 89 1016.7
20260502000604 10 213 0.0 3.2 0.00 0.00 0.00 89 1016.8
20260502000105 10 213 0.0 0.0 0.00 0.00 0.00 89 1016.9
20260501235105 10 213 0.0 1.6 0.00 0.00 0.00 89 1017.1
20260501234605 11 213 0.0 0.0 0.00 0.00 0.00 89 1017.1
20260501233605 11 213 0.0 0.0 0.00 0.00 0.00 89 1017.2
20260501231605 11 213 1.6 4.8 0.00 0.00 0.00 88 1017.2
20260501230105 10 213 0.0 0.0 0.00 0.00 0.00 88 1017.3
20260501225605 10 213 0.0 0.0 0.00 0.00 0.00 87 1017.2
20260501224105 11 213 0.0 0.0 0.00 0.00 0.00 87 1017.2
20260501222605 11 213 1.6 4.8 0.00 0.00 0.00 87 1017.1
20260501222105 11 213 1.6 4.8 0.00 0.00 0.00 87 1017.1
20260501220105 11 212 0.0 4.8 0.00 0.00 0.00 86 1017.2
20260501215605 11 212 0.0 0.0 0.00 0.00 0.00 86 1017.2
20260501215105 11 212 0.0 0.0 0.00 0.00 0.00 85 1017.2
20260501214605 11 212 0.0 0.0 0.00 0.00 0.00 85 1017.3
20260501214106 11 212 0.0 0.0 0.00 0.00 0.00 85 1017.3
20260501213606 11 212 0.0 3.2 0.00 0.00 0.00 85 1017.3
20260501210106 12 212 0.0 0.0 0.00 0.00 0.00 83 1017.2
20260501204606 12 212 0.0 0.0 0.00 0.00 0.00 83 1017.1
20260501204105 12 212 0.0 1.6 0.00 0.00 0.00 82 1017.1
20260501202104 12 213 0.0 1.6 0.00 0.00 0.00 80 1017.0
20260501201105 13 213 0.0 4.8 0.00 0.00 0.00 79 1017.0
20260501200105 13 213 0.0 4.8 0.00 0.00 0.00 78 1016.9
20260501194604 13 213 0.0 1.6 0.00 0.00 0.00 75 1016.8
20260501193604 14 213 0.0 0.0 0.00 0.00 0.00 73 1016.7
20260501192105 15 213 0.0 4.8 0.00 0.00 0.00 71 1016.7
20260501191105 15 213 0.0 3.2 0.00 0.00 0.00 70 1016.7
20260501184105 16 213 0.0 4.8 0.00 0.00 0.00 67 1016.6
20260501183105 16 213 0.0 0.0 0.00 0.00 0.00 67 1016.4
20260501182604 16 213 0.0 4.8 0.00 0.00 0.00 66 1016.4
20260501182104 16 213 0.0 4.8 0.00 0.00 0.00 65 1016.3
20260501180605 16 213 3.2 11.3 0.00 0.00 0.00 64 1016.3
20260501180105 16 213 6.4 11.3 0.00 0.00 0.00 65 1016.3
20260501175604 16 209 8.0 16.1 0.00 0.00 0.00 66 1016.4
20260501175105 17 216 9.7 19.3 0.00 0.00 0.00 66 1016.4
20260501174106 17 213 6.4 11.3 0.00 0.00 0.00 70 1016.4
20260501173604 17 211 6.4 12.9 0.00 0.00 0.00 70 1016.4
20260501173105 17 213 4.8 11.3 0.00 0.00 0.00 70 1016.4
20260501172105 17 210 1.6 9.7 0.00 0.00 0.00 70 1016.4
20260501164604 18 225 4.8 12.9 0.00 0.00 0.00 67 1016.6
20260501164105 18 212 3.2 12.9 0.00 0.00 0.00 67 1016.6
20260501163604 18 217 6.4 19.3 0.00 0.00 0.00 67 1016.6
20260501162105 19 214 8.0 25.7 0.00 0.00 0.00 66 1016.6
20260501161605 20 222 6.4 14.5 0.00 0.00 0.00 65 1016.6
20260501161105 20 196 9.7 19.3 0.00 0.00 0.00 65 1016.6
20260501160605 20 214 8.0 19.3 0.00 0.00 0.00 65 1016.6
20260501155604 19 215 6.4 19.3 0.00 0.00 0.00 68 1016.7
20260501155105 19 202 4.8 20.9 0.00 0.00 0.00 68 1016.7
20260501154105 18 217 8.0 19.3 0.00 0.00 0.00 69 1016.8
20260501153604 18 217 8.0 19.3 0.00 0.00 0.00 69 1016.9
20260501153105 18 191 1.6 11.3 0.00 0.00 0.00 70 1016.9
20260501152105 18 192 4.8 19.3 0.00 0.00 0.00 70 1017.0
20260501151605 19 206 8.0 24.1 0.00 0.00 0.00 68 1017.1
20260501151105 19 223 8.0 19.3 0.00 0.00 0.00 69 1017.1
20260501150105 20 210 6.4 19.3 0.00 0.00 0.00 68 1017.1
20260501145105 20 219 11.3 20.9 0.00 0.00 0.00 66 1017.1
20260501143604 20 213 6.4 19.3 0.00 0.00 0.00 67 1017.1
20260501143105 20 199 4.8 19.3 0.00 0.00 0.00 67 1017.0
20260501142604 20 210 8.0 20.9 0.00 0.00 0.00 69 1016.9
20260501141105 21 219 12.9 24.1 0.00 0.00 0.00 68 1017.0
20260501140605 21 192 1.6 12.9 0.00 0.00 0.00 68 1016.9
20260501135105 21 218 4.8 16.1 0.00 0.00 0.00 66 1016.8